,,,PA_Meas_PMT16A,,PR_Meas_QMR101_102,,RH_Meas_QMH101,,SR_Meas_QMS101,,TA_Meas_QMH101,,GenWind,,GenWind,
date,time,status,PA,status,PR,status,RH,status,SR,status,TA,status,DirAvg,status,SpdAvg,
2011-09-27, 00:00:04,VALID,1009.08,VALID,0.0,VALID,102.627,VALID,0.0,VALID,23.343,VALID,8.0,VALID,0.56,
2011-09-27, 00:01:04,VALID,1009.049,VALID,0.0,VALID,102.666,VALID,0.0,VALID,23.343,VALID,7.0,VALID,0.193,
2011-09-27, 00:02:04,VALID,1009.021,VALID,0.0,VALID,102.635,VALID,0.0,VALID,23.324,VALID,33.0,VALID,0.886,
2011-09-27, 00:03:04,VALID,1009.006,VALID,0.0,VALID,102.704,VALID,0.0,VALID,23.324,VALID,340.0,VALID,0.657,
2011-09-27, 00:04:04,VALID,1008.97,VALID,0.0,VALID,102.704,VALID,0.0,VALID,23.324,VALID,14.0,VALID,0.642,
2011-09-27, 00:05:04,VALID,1008.933,VALID,0.0,VALID,102.818,VALID,0.0,VALID,23.324,VALID,11.0,VALID,0.26,
2011-09-27, 00:06:04,VALID,1008.901,VALID,0.0,VALID,102.894,VALID,0.0,VALID,23.304,VALID,7.0,VALID,0.362,
2011-09-27, 00:07:04,VALID,1008.901,VALID,0.0,VALID,102.932,VALID,0.0,VALID,23.283,VALID,7.0,VALID,0.0,
2011-09-27, 00:08:04,VALID,1008.888,VALID,0.0,VALID,103.032,VALID,0.0,VALID,23.285,VALID,341.0,VALID,0.491,
2011-09-27, 00:09:04,VALID,1008.9,VALID,0.0,VALID,103.032,VALID,0.0,VALID,23.285,VALID,346.0,VALID,0.777,
2011-09-27, 00:10:04,VALID,1008.855,VALID,0.0,VALID,103.07,VALID,0.0,VALID,23.285,VALID,353.0,VALID,0.0,
2011-09-27, 00:11:04,VALID,1008.842,VALID,0.0,VALID,103.1,VALID,0.0,VALID,23.265,VALID,339.0,VALID,0.909,
2011-09-27, 00:12:04,VALID,1008.863,VALID,0.0,VALID,103.1,VALID,0.0,VALID,23.225,VALID,357.0,VALID,0.667,
2011-09-27, 00:13:04,VALID,1008.849,VALID,0.0,VALID,103.146,VALID,0.0,VALID,23.265,VALID,9.0,VALID,0.76,
2011-09-27, 00:14:04,VALID,1008.812,VALID,0.0,VALID,103.222,VALID,0.0,VALID,23.225,VALID,7.0,VALID,0.248,
2011-09-27, 00:15:04,VALID,1008.798,VALID,0.0,VALID,103.291,VALID,0.112,VALID,23.205,VALID,7.0,VALID,0.395,
2011-09-27, 00:16:04,VALID,1008.768,VALID,0.0,VALID,103.245,VALID,0.0,VALID,23.226,VALID,7.0,VALID,0.121,
2011-09-27, 00:17:04,VALID,1008.733,VALID,0.0,VALID,103.321,VALID,0.0,VALID,23.226,VALID,7.0,VALID,0.095,
2011-09-27, 00:18:04,VALID,1008.745,VALID,0.0,VALID,103.283,VALID,0.0,VALID,23.207,VALID,343.0,VALID,1.052,
2011-09-27, 00:19:04,VALID,1008.735,VALID,0.0,VALID,103.337,VALID,0.0,VALID,23.207,VALID,340.0,VALID,0.533,
2011-09-27, 00:20:04,VALID,1008.707,VALID,0.0,VALID,103.382,VALID,0.0,VALID,23.186,VALID,14.0,VALID,0.938,
2011-09-27, 00:21:04,VALID,1008.694,VALID,0.0,VALID,103.474,VALID,0.0,VALID,23.207,VALID,346.0,VALID,0.6,
2011-09-27, 00:22:04,VALID,1008.66,VALID,0.0,VALID,103.481,VALID,0.112,VALID,23.207,VALID,352.0,VALID,0.197,
2011-09-27, 00:23:04,VALID,1008.681,VALID,0.0,VALID,103.535,VALID,0.0,VALID,23.226,VALID,352.0,VALID,0.469,
2011-09-27, 00:24:04,VALID,1008.644,VALID,0.0,VALID,103.573,VALID,0.0,VALID,23.207,VALID,352.0,VALID,0.339,
2011-09-27, 00:25:04,VALID,1008.626,VALID,0.0,VALID,103.535,VALID,0.0,VALID,23.187,VALID,353.0,VALID,0.789,
2011-09-27, 00:26:04,VALID,1008.616,VALID,0.0,VALID,103.466,VALID,0.0,VALID,23.187,VALID,340.0,VALID,0.932,
2011-09-27, 00:27:04,VALID,1008.619,VALID,0.0,VALID,103.565,VALID,0.0,VALID,23.187,VALID,339.0,VALID,0.34,
2011-09-27, 00:28:04,VALID,1008.592,VALID,0.0,VALID,103.55,VALID,0.0,VALID,23.187,VALID,341.0,VALID,0.332,
2011-09-27, 00:29:04,VALID,1008.583,VALID,0.0,VALID,103.573,VALID,0.0,VALID,23.187,VALID,341.0,VALID,0.25,
2011-09-27, 00:30:04,VALID,1008.559,VALID,0.0,VALID,103.657,VALID,0.0,VALID,23.207,VALID,341.0,VALID,0.242,
2011-09-27, 00:31:04,VALID,1008.547,VALID,0.0,VALID,103.642,VALID,0.112,VALID,23.187,VALID,341.0,VALID,0.002,
2011-09-27, 00:32:04,VALID,1008.542,VALID,0.0,VALID,103.672,VALID,0.0,VALID,23.166,VALID,341.0,VALID,0.335,
2011-09-27, 00:33:04,VALID,1008.556,VALID,0.0,VALID,103.664,VALID,0.0,VALID,23.168,VALID,341.0,VALID,0.236,
2011-09-27, 00:34:04,VALID,1008.552,VALID,0.0,VALID,103.71,VALID,0.0,VALID,23.168,VALID,342.0,VALID,0.352,
2011-09-27, 00:35:04,VALID,1008.557,VALID,0.0,VALID,103.794,VALID,0.0,VALID,23.147,VALID,341.0,VALID,0.5,
2011-09-27, 00:36:04,VALID,1008.575,VALID,0.0,VALID,103.779,VALID,0.0,VALID,23.168,VALID,340.0,VALID,0.338,
2011-09-27, 00:37:04,VALID,1008.588,VALID,0.0,VALID,103.779,VALID,0.0,VALID,23.168,VALID,340.0,VALID,0.372,
2011-09-27, 00:38:04,VALID,1008.597,VALID,0.0,VALID,103.84,VALID,0.0,VALID,23.168,VALID,340.0,VALID,0.212,
2011-09-27, 00:39:04,VALID,1008.596,VALID,0.0,VALID,103.848,VALID,0.0,VALID,23.168,VALID,340.0,VALID,0.528,
2011-09-27, 00:40:04,VALID,1008.643,VALID,0.0,VALID,103.87,VALID,0.0,VALID,23.168,VALID,352.0,VALID,0.566,
2011-09-27, 00:41:04,VALID,1008.618,VALID,0.0,VALID,103.878,VALID,0.0,VALID,23.148,VALID,352.0,VALID,0.177,
2011-09-27, 00:42:04,VALID,1008.664,VALID,0.0,VALID,103.931,VALID,0.0,VALID,23.147,VALID,352.0,VALID,0.176,
2011-09-27, 00:43:04,VALID,1008.637,VALID,0.0,VALID,103.97,VALID,0.0,VALID,23.168,VALID,352.0,VALID,0.284,
2011-09-27, 00:44:04,VALID,1008.645,VALID,0.0,VALID,104.0,VALID,0.0,VALID,23.168,VALID,352.0,VALID,0.127,
2011-09-27, 00:45:04,VALID,1008.614,VALID,0.0,VALID,104.0,VALID,0.0,VALID,23.168,VALID,352.0,VALID,0.562,
2011-09-27, 00:46:04,VALID,1008.608,VALID,0.0,VALID,104.0,VALID,0.0,VALID,23.148,VALID,352.0,VALID,0.514,
2011-09-27, 00:47:04,VALID,1008.636,VALID,0.0,VALID,104.0,VALID,0.0,VALID,23.168,VALID,352.0,VALID,0.307,
2011-09-27, 00:48:04,VALID,1008.615,VALID,0.0,VALID,104.0,VALID,0.0,VALID,23.148,VALID,329.0,VALID,0.703,
2011-09-27, 00:49:04,VALID,1008.619,VALID,0.0,VALID,104.0,VALID,0.0,VALID,23.148,VALID,336.0,VALID,0.51,
2011-09-27, 00:50:04,VALID,1008.625,VALID,0.0,VALID,104.0,VALID,0.0,VALID,23.148,VALID,333.0,VALID,0.43,
2011-09-27, 00:51:04,VALID,1008.608,VALID,0.0,VALID,104.0,VALID,0.0,VALID,23.148,VALID,333.0,VALID,0.375,
2011-09-27, 00:52:04,VALID,1008.581,VALID,0.0,VALID,104.0,VALID,0.0,VALID,23.148,VALID,335.0,VALID,0.591,
2011-09-27, 00:53:04,VALID,1008.566,VALID,0.0,VALID,104.0,VALID,0.0,VALID,23.148,VALID,335.0,VALID,0.352,
2011-09-27, 00:54:04,VALID,1008.552,VALID,0.0,VALID,104.0,VALID,0.0,VALID,23.148,VALID,335.0,VALID,0.507,
2011-09-27, 00:55:04,VALID,1008.571,VALID,0.0,VALID,104.0,VALID,0.0,VALID,23.148,VALID,335.0,VALID,0.464,
2011-09-27, 00:56:04,VALID,1008.539,VALID,0.0,VALID,104.0,VALID,0.0,VALID,23.168,VALID,335.0,VALID,0.728,
2011-09-27, 00:57:04,VALID,1008.53,VALID,0.0,VALID,104.0,VALID,0.0,VALID,23.148,VALID,335.0,VALID,0.16,
2011-09-27, 00:58:04,VALID,1008.53,VALID,0.0,VALID,104.0,VALID,0.0,VALID,23.147,VALID,335.0,VALID,0.0,
2011-09-27, 00:59:04,VALID,1008.51,VALID,0.0,VALID,104.0,VALID,0.0,VALID,23.168,VALID,335.0,VALID,0.0,
2011-09-27, 01:00:04,VALID,1008.475,VALID,0.0,VALID,104.0,VALID,0.0,VALID,23.168,VALID,335.0,VALID,0.049,
2011-09-27, 01:01:04,VALID,1008.456,VALID,0.0,VALID,104.0,VALID,0.0,VALID,23.148,VALID,335.0,VALID,0.254,
2011-09-27, 01:02:04,VALID,1008.445,VALID,0.0,VALID,104.0,VALID,0.0,VALID,23.148,VALID,335.0,VALID,0.326,
2011-09-27, 01:03:04,VALID,1008.454,VALID,0.0,VALID,104.0,VALID,0.0,VALID,23.148,VALID,335.0,VALID,0.597,
2011-09-27, 01:04:04,VALID,1008.442,VALID,0.0,VALID,104.0,VALID,0.112,VALID,23.168,VALID,335.0,VALID,0.214,
2011-09-27, 01:05:04,VALID,1008.41,VALID,0.0,VALID,104.0,VALID,0.0,VALID,23.168,VALID,335.0,VALID,0.005,
2011-09-27, 01:06:04,VALID,1008.415,VALID,0.0,VALID,104.0,VALID,0.0,VALID,23.168,VALID,335.0,VALID,0.31,
2011-09-27, 01:07:04,VALID,1008.432,VALID,0.0,VALID,104.0,VALID,0.0,VALID,23.168,VALID,335.0,VALID,0.363,
2011-09-27, 01:08:04,VALID,1008.395,VALID,0.0,VALID,104.0,VALID,0.0,VALID,23.168,VALID,335.0,VALID,0.276,
2011-09-27, 01:09:04,VALID,1008.424,VALID,0.0,VALID,104.0,VALID,0.0,VALID,23.168,VALID,335.0,VALID,0.202,
2011-09-27, 01:10:04,VALID,1008.428,VALID,0.0,VALID,104.0,VALID,0.0,VALID,23.187,VALID,335.0,VALID,0.0,
2011-09-27, 01:11:04,VALID,1008.445,VALID,0.0,VALID,104.0,VALID,0.0,VALID,23.168,VALID,335.0,VALID,0.0,
2011-09-27, 01:12:04,VALID,1008.466,VALID,0.0,VALID,104.0,VALID,0.0,VALID,23.189,VALID,335.0,VALID,0.0,
2011-09-27, 01:13:04,VALID,1008.451,VALID,0.0,VALID,104.0,VALID,0.0,VALID,23.17,VALID,335.0,VALID,0.206,
2011-09-27, 01:14:04,VALID,1008.461,VALID,0.0,VALID,104.0,VALID,0.0,VALID,23.168,VALID,335.0,VALID,0.303,
2011-09-27, 01:15:04,VALID,1008.448,VALID,0.0,VALID,103.992,VALID,0.0,VALID,23.148,VALID,335.0,VALID,0.288,
2011-09-27, 01:16:04,VALID,1008.444,VALID,0.0,VALID,104.0,VALID,0.0,VALID,23.187,VALID,335.0,VALID,0.276,
2011-09-27, 01:17:04,VALID,1008.465,VALID,0.0,VALID,104.0,VALID,0.0,VALID,23.187,VALID,335.0,VALID,0.16,
2011-09-27, 01:18:04,VALID,1008.451,VALID,0.0,VALID,104.0,VALID,0.0,VALID,23.168,VALID,335.0,VALID,0.339,
2011-09-27, 01:19:04,VALID,1008.463,VALID,0.0,VALID,104.0,VALID,0.0,VALID,23.168,VALID,335.0,VALID,0.339,
2011-09-27, 01:20:04,VALID,1008.48,VALID,0.0,VALID,104.0,VALID,0.0,VALID,23.168,VALID,335.0,VALID,0.107,
2011-09-27, 01:21:04,VALID,1008.452,VALID,0.0,VALID,104.0,VALID,0.0,VALID,23.187,VALID,335.0,VALID,0.361,
2011-09-27, 01:22:05,VALID,1008.462,VALID,0.0,VALID,104.0,VALID,0.0,VALID,23.187,VALID,335.0,VALID,0.319,
2011-09-27, 01:23:05,VALID,1008.481,VALID,0.0,VALID,104.0,VALID,0.112,VALID,23.187,VALID,335.0,VALID,0.339,
2011-09-27, 01:24:05,VALID,1008.469,VALID,0.0,VALID,104.0,VALID,0.0,VALID,23.207,VALID,335.0,VALID,0.225,
2011-09-27, 01:25:05,VALID,1008.464,VALID,0.0,VALID,104.0,VALID,0.0,VALID,23.187,VALID,335.0,VALID,0.194,
2011-09-27, 01:26:05,VALID,1008.488,VALID,0.0,VALID,104.0,VALID,0.0,VALID,23.207,VALID,335.0,VALID,0.339,
2011-09-27, 01:27:05,VALID,1008.465,VALID,0.0,VALID,104.0,VALID,0.0,VALID,23.207,VALID,335.0,VALID,0.376,
2011-09-27, 01:28:05,VALID,1008.441,VALID,0.0,VALID,104.0,VALID,0.0,VALID,23.209,VALID,335.0,VALID,0.286,
2011-09-27, 01:29:05,VALID,1008.416,VALID,0.0,VALID,104.0,VALID,0.0,VALID,23.187,VALID,335.0,VALID,0.175,
2011-09-27, 01:30:05,VALID,1008.434,VALID,0.0,VALID,104.0,VALID,0.0,VALID,23.187,VALID,335.0,VALID,0.423,
2011-09-27, 01:31:05,VALID,1008.434,VALID,0.0,VALID,104.0,VALID,0.0,VALID,23.187,VALID,335.0,VALID,0.162,
2011-09-27, 01:32:05,VALID,1008.43,VALID,0.0,VALID,104.0,VALID,0.112,VALID,23.207,VALID,328.0,VALID,0.476,
2011-09-27, 01:33:05,VALID,1008.428,VALID,0.0,VALID,104.0,VALID,0.0,VALID,23.207,VALID,328.0,VALID,0.367,
2011-09-27, 01:34:05,VALID,1008.399,VALID,0.0,VALID,104.0,VALID,0.0,VALID,23.228,VALID,328.0,VALID,0.357,
2011-09-27, 01:35:05,VALID,1008.426,VALID,0.0,VALID,104.0,VALID,0.0,VALID,23.207,VALID,328.0,VALID,0.295,
2011-09-27, 01:36:05,VALID,1008.43,VALID,0.0,VALID,104.0,VALID,0.0,VALID,23.226,VALID,328.0,VALID,0.268,
2011-09-27, 01:37:05,VALID,1008.432,VALID,0.0,VALID,104.0,VALID,0.0,VALID,23.248,VALID,328.0,VALID,0.114,
2011-09-27, 01:38:05,VALID,1008.471,VALID,0.0,VALID,104.0,VALID,0.0,VALID,23.226,VALID,328.0,VALID,0.203,
2011-09-27, 01:39:05,VALID,1008.479,VALID,0.0,VALID,104.0,VALID,0.0,VALID,23.207,VALID,328.0,VALID,0.223,
2011-09-27, 01:40:05,VALID,1008.467,VALID,0.0,VALID,104.0,VALID,0.0,VALID,23.226,VALID,328.0,VALID,0.243,
2011-09-27, 01:41:05,VALID,1008.49,VALID,0.0,VALID,104.0,VALID,0.0,VALID,23.226,VALID,328.0,VALID,0.273,
2011-09-27, 01:42:05,VALID,1008.474,VALID,0.0,VALID,104.0,VALID,0.0,VALID,23.226,VALID,328.0,VALID,0.455,
2011-09-27, 01:43:05,VALID,1008.473,VALID,0.0,VALID,104.0,VALID,0.0,VALID,23.207,VALID,328.0,VALID,0.37,
2011-09-27, 01:44:05,VALID,1008.471,VALID,0.0,VALID,104.0,VALID,0.0,VALID,23.207,VALID,328.0,VALID,0.37,
2011-09-27, 01:45:05,VALID,1008.483,VALID,0.0,VALID,104.0,VALID,0.0,VALID,23.207,VALID,328.0,VALID,0.358,
2011-09-27, 01:46:05,VALID,1008.482,VALID,0.0,VALID,104.0,VALID,0.112,VALID,23.207,VALID,328.0,VALID,0.256,
2011-09-27, 01:47:05,VALID,1008.495,VALID,0.0,VALID,104.0,VALID,0.0,VALID,23.207,VALID,328.0,VALID,0.193,
2011-09-27, 01:48:05,VALID,1008.458,VALID,0.0,VALID,104.0,VALID,0.0,VALID,23.207,VALID,328.0,VALID,0.261,
2011-09-27, 01:49:05,VALID,1008.431,VALID,0.0,VALID,104.0,VALID,0.112,VALID,23.207,VALID,328.0,VALID,0.321,
2011-09-27, 01:50:05,VALID,1008.431,VALID,0.0,VALID,104.0,VALID,0.112,VALID,23.205,VALID,328.0,VALID,0.334,
2011-09-27, 01:51:05,VALID,1008.422,VALID,0.0,VALID,104.0,VALID,0.0,VALID,23.166,VALID,328.0,VALID,0.413,
2011-09-27, 01:52:05,VALID,1008.439,VALID,0.0,VALID,104.0,VALID,0.0,VALID,23.186,VALID,328.0,VALID,0.508,
2011-09-27, 01:53:05,VALID,1008.403,VALID,0.0,VALID,104.0,VALID,0.112,VALID,23.187,VALID,333.0,VALID,0.456,
2011-09-27, 01:54:05,VALID,1008.39,VALID,0.0,VALID,104.0,VALID,0.0,VALID,23.186,VALID,333.0,VALID,0.136,
2011-09-27, 01:55:05,VALID,1008.401,VALID,0.0,VALID,104.0,VALID,0.112,VALID,23.166,VALID,333.0,VALID,0.169,
2011-09-27, 01:56:05,VALID,1008.379,VALID,0.0,VALID,104.0,VALID,0.0,VALID,23.166,VALID,333.0,VALID,0.289,
2011-09-27, 01:57:05,VALID,1008.389,VALID,0.0,VALID,104.0,VALID,0.112,VALID,23.166,VALID,333.0,VALID,0.227,
2011-09-27, 01:58:05,VALID,1008.407,VALID,0.0,VALID,104.0,VALID,0.0,VALID,23.168,VALID,333.0,VALID,0.155,
2011-09-27, 01:59:05,VALID,1008.416,VALID,0.0,VALID,104.0,VALID,0.112,VALID,23.147,VALID,333.0,VALID,0.308,
2011-09-27, 02:00:05,VALID,1008.41,VALID,0.0,VALID,104.0,VALID,0.112,VALID,23.148,VALID,333.0,VALID,0.078,
2011-09-27, 02:01:05,VALID,1008.411,VALID,0.0,VALID,104.0,VALID,0.112,VALID,23.168,VALID,333.0,VALID,0.272,
2011-09-27, 02:02:05,VALID,1008.398,VALID,0.0,VALID,104.0,VALID,0.0,VALID,23.147,VALID,333.0,VALID,0.338,
2011-09-27, 02:03:05,VALID,1008.369,VALID,0.0,VALID,104.0,VALID,0.0,VALID,23.147,VALID,333.0,VALID,0.367,
2011-09-27, 02:04:05,VALID,1008.362,VALID,0.0,VALID,104.0,VALID,0.112,VALID,23.147,VALID,333.0,VALID,0.529,
2011-09-27, 02:05:05,VALID,1008.372,VALID,0.0,VALID,104.0,VALID,0.112,VALID,23.168,VALID,333.0,VALID,0.161,
2011-09-27, 02:06:05,VALID,1008.363,VALID,0.0,VALID,104.0,VALID,0.112,VALID,23.127,VALID,333.0,VALID,0.072,
2011-09-27, 02:07:05,VALID,1008.365,VALID,0.0,VALID,104.0,VALID,0.112,VALID,23.147,VALID,333.0,VALID,0.25,
2011-09-27, 02:08:05,VALID,1008.357,VALID,0.0,VALID,104.0,VALID,0.0,VALID,23.129,VALID,333.0,VALID,0.128,
2011-09-27, 02:09:05,VALID,1008.333,VALID,0.0,VALID,104.0,VALID,0.112,VALID,23.108,VALID,333.0,VALID,0.423,
2011-09-27, 02:10:05,VALID,1008.299,VALID,0.0,VALID,104.0,VALID,0.112,VALID,23.108,VALID,333.0,VALID,0.459,
2011-09-27, 02:11:05,VALID,1008.306,VALID,0.0,VALID,104.0,VALID,0.112,VALID,23.088,VALID,333.0,VALID,0.248,
2011-09-27, 02:12:05,VALID,1008.327,VALID,0.0,VALID,104.0,VALID,0.112,VALID,23.109,VALID,333.0,VALID,0.166,
2011-09-27, 02:13:05,VALID,1008.294,VALID,0.0,VALID,104.0,VALID,0.112,VALID,23.129,VALID,333.0,VALID,0.107,
2011-09-27, 02:14:05,VALID,1008.26,VALID,0.0,VALID,104.0,VALID,0.0,VALID,23.088,VALID,333.0,VALID,0.056,
2011-09-27, 02:15:05,VALID,1008.219,VALID,0.0,VALID,104.0,VALID,0.0,VALID,23.109,VALID,333.0,VALID,0.181,
2011-09-27, 02:16:05,VALID,1008.219,VALID,0.0,VALID,104.0,VALID,0.0,VALID,23.069,VALID,333.0,VALID,0.206,
2011-09-27, 02:17:05,VALID,1008.189,VALID,0.0,VALID,104.0,VALID,0.0,VALID,23.069,VALID,333.0,VALID,0.161,
2011-09-27, 02:18:05,VALID,1008.192,VALID,0.0,VALID,104.0,VALID,0.112,VALID,23.071,VALID,333.0,VALID,0.12,
2011-09-27, 02:19:05,VALID,1008.162,VALID,0.0,VALID,104.0,VALID,0.0,VALID,23.049,VALID,333.0,VALID,0.061,
2011-09-27, 02:20:05,VALID,1008.17,VALID,0.0,VALID,104.0,VALID,0.0,VALID,23.049,VALID,333.0,VALID,0.219,
2011-09-27, 02:21:05,VALID,1008.156,VALID,0.0,VALID,104.0,VALID,0.112,VALID,23.051,VALID,333.0,VALID,0.313,
2011-09-27, 02:22:05,VALID,1008.148,VALID,0.0,VALID,104.0,VALID,0.112,VALID,23.03,VALID,333.0,VALID,0.318,
2011-09-27, 02:23:05,VALID,1008.158,VALID,0.0,VALID,104.0,VALID,0.112,VALID,23.03,VALID,333.0,VALID,0.109,
2011-09-27, 02:24:05,VALID,1008.138,VALID,0.0,VALID,104.0,VALID,0.112,VALID,23.051,VALID,333.0,VALID,0.154,
2011-09-27, 02:25:05,VALID,1008.13,VALID,0.0,VALID,104.0,VALID,0.0,VALID,23.03,VALID,333.0,VALID,0.089,
2011-09-27, 02:26:05,VALID,1008.134,VALID,0.0,VALID,104.0,VALID,0.112,VALID,23.051,VALID,333.0,VALID,0.191,
2011-09-27, 02:27:05,VALID,1008.115,VALID,0.0,VALID,104.0,VALID,0.112,VALID,23.03,VALID,333.0,VALID,0.205,
2011-09-27, 02:28:05,VALID,1008.146,VALID,0.0,VALID,104.0,VALID,0.0,VALID,23.032,VALID,333.0,VALID,0.361,
2011-09-27, 02:29:05,VALID,1008.13,VALID,0.0,VALID,104.0,VALID,0.112,VALID,23.01,VALID,333.0,VALID,0.357,
2011-09-27, 02:30:05,VALID,1008.119,VALID,0.0,VALID,104.0,VALID,0.0,VALID,23.032,VALID,333.0,VALID,0.238,
2011-09-27, 02:31:05,VALID,1008.139,VALID,0.0,VALID,104.0,VALID,0.0,VALID,23.032,VALID,333.0,VALID,0.194,
2011-09-27, 02:32:05,VALID,1008.098,VALID,0.0,VALID,104.0,VALID,0.0,VALID,23.01,VALID,333.0,VALID,0.136,
2011-09-27, 02:33:05,VALID,1008.106,VALID,0.0,VALID,104.0,VALID,0.0,VALID,23.012,VALID,333.0,VALID,0.147,
2011-09-27, 02:34:05,VALID,1008.098,VALID,0.0,VALID,104.0,VALID,0.0,VALID,23.01,VALID,333.0,VALID,0.098,
2011-09-27, 02:35:05,VALID,1008.074,VALID,0.0,VALID,104.0,VALID,0.112,VALID,23.01,VALID,333.0,VALID,0.0,
2011-09-27, 02:36:05,VALID,1008.036,VALID,0.0,VALID,104.0,VALID,0.0,VALID,23.01,VALID,333.0,VALID,0.0,
2011-09-27, 02:37:05,VALID,1008.039,VALID,0.0,VALID,104.0,VALID,0.112,VALID,23.01,VALID,333.0,VALID,0.0,
2011-09-27, 02:38:05,VALID,1008.009,VALID,0.0,VALID,104.0,VALID,0.112,VALID,23.01,VALID,333.0,VALID,0.159,
2011-09-27, 02:39:05,VALID,1007.986,VALID,0.0,VALID,104.0,VALID,0.112,VALID,23.032,VALID,333.0,VALID,0.237,
2011-09-27, 02:40:05,VALID,1007.991,VALID,0.0,VALID,104.0,VALID,0.112,VALID,23.03,VALID,333.0,VALID,0.218,
2011-09-27, 02:41:05,VALID,1007.969,VALID,0.0,VALID,104.0,VALID,0.112,VALID,23.01,VALID,333.0,VALID,0.075,
2011-09-27, 02:42:05,VALID,1007.984,VALID,0.0,VALID,104.0,VALID,0.112,VALID,23.03,VALID,333.0,VALID,0.23,
2011-09-27, 02:43:05,VALID,1007.967,VALID,0.0,VALID,104.0,VALID,0.0,VALID,23.051,VALID,333.0,VALID,0.206,
2011-09-27, 02:44:05,VALID,1007.962,VALID,0.0,VALID,104.0,VALID,0.0,VALID,23.03,VALID,333.0,VALID,0.268,
2011-09-27, 02:45:05,VALID,1007.974,VALID,0.0,VALID,104.0,VALID,0.112,VALID,23.01,VALID,333.0,VALID,0.235,
2011-09-27, 02:46:05,VALID,1007.943,VALID,0.0,VALID,104.0,VALID,0.0,VALID,23.01,VALID,333.0,VALID,0.157,
2011-09-27, 02:47:05,VALID,1007.969,VALID,0.0,VALID,104.0,VALID,0.0,VALID,23.01,VALID,333.0,VALID,0.183,
2011-09-27, 02:48:05,VALID,1007.978,VALID,0.0,VALID,104.0,VALID,0.112,VALID,23.01,VALID,333.0,VALID,0.167,
2011-09-27, 02:49:05,VALID,1007.995,VALID,0.0,VALID,104.0,VALID,0.112,VALID,23.01,VALID,333.0,VALID,0.083,
2011-09-27, 02:50:05,VALID,1007.974,VALID,0.0,VALID,104.0,VALID,0.0,VALID,22.993,VALID,333.0,VALID,0.086,
2011-09-27, 02:51:05,VALID,1007.986,VALID,0.0,VALID,104.0,VALID,0.0,VALID,23.012,VALID,333.0,VALID,0.155,
2011-09-27, 02:52:05,VALID,1007.992,VALID,0.0,VALID,104.0,VALID,0.0,VALID,22.993,VALID,333.0,VALID,0.123,
2011-09-27, 02:53:05,VALID,1007.985,VALID,0.0,VALID,104.0,VALID,0.0,VALID,23.012,VALID,333.0,VALID,0.083,
2011-09-27, 02:54:05,VALID,1008.012,VALID,0.0,VALID,104.0,VALID,0.0,VALID,22.993,VALID,333.0,VALID,0.0,
2011-09-27, 02:55:05,VALID,1007.985,VALID,0.0,VALID,104.0,VALID,0.0,VALID,22.993,VALID,333.0,VALID,0.0,
2011-09-27, 02:56:05,VALID,1007.979,VALID,0.0,VALID,104.0,VALID,0.0,VALID,22.993,VALID,333.0,VALID,0.129,
2011-09-27, 02:57:05,VALID,1007.986,VALID,0.0,VALID,104.0,VALID,0.0,VALID,23.014,VALID,333.0,VALID,0.123,
2011-09-27, 02:58:05,VALID,1008.0,VALID,0.0,VALID,104.0,VALID,0.0,VALID,22.993,VALID,333.0,VALID,0.0,
2011-09-27, 02:59:05,VALID,1007.987,VALID,0.0,VALID,104.0,VALID,0.0,VALID,22.993,VALID,333.0,VALID,0.0,
2011-09-27, 03:00:05,VALID,1008.01,VALID,0.0,VALID,104.0,VALID,0.0,VALID,22.973,VALID,333.0,VALID,0.249,
2011-09-27, 03:01:05,VALID,1007.984,VALID,0.0,VALID,104.0,VALID,0.0,VALID,22.993,VALID,333.0,VALID,0.178,
2011-09-27, 03:02:05,VALID,1008.003,VALID,0.0,VALID,104.0,VALID,0.0,VALID,22.993,VALID,333.0,VALID,0.287,
2011-09-27, 03:03:05,VALID,1008.0,VALID,0.0,VALID,104.0,VALID,0.0,VALID,23.012,VALID,333.0,VALID,0.445,
2011-09-27, 03:04:05,VALID,1008.03,VALID,0.0,VALID,104.0,VALID,0.0,VALID,23.012,VALID,332.0,VALID,0.469,
2011-09-27, 03:05:05,VALID,1008.008,VALID,0.0,VALID,104.0,VALID,0.0,VALID,23.032,VALID,332.0,VALID,0.297,
2011-09-27, 03:06:05,VALID,1008.005,VALID,0.0,VALID,104.0,VALID,0.0,VALID,23.032,VALID,332.0,VALID,0.269,
2011-09-27, 03:07:05,VALID,1007.981,VALID,0.0,VALID,104.0,VALID,0.0,VALID,23.032,VALID,332.0,VALID,0.469,
2011-09-27, 03:08:05,VALID,1008.023,VALID,0.0,VALID,104.0,VALID,0.0,VALID,23.051,VALID,332.0,VALID,0.341,
2011-09-27, 03:09:05,VALID,1008.012,VALID,0.0,VALID,104.0,VALID,0.0,VALID,23.032,VALID,332.0,VALID,0.346,
2011-09-27, 03:10:05,VALID,1008.021,VALID,0.0,VALID,104.0,VALID,0.112,VALID,23.01,VALID,332.0,VALID,0.45,
2011-09-27, 03:11:05,VALID,1008.026,VALID,0.0,VALID,104.0,VALID,0.0,VALID,23.032,VALID,332.0,VALID,0.23,
2011-09-27, 03:12:05,VALID,1008.058,VALID,0.0,VALID,104.0,VALID,0.0,VALID,23.01,VALID,332.0,VALID,0.112,
2011-09-27, 03:13:05,VALID,1008.049,VALID,0.0,VALID,104.0,VALID,0.0,VALID,23.051,VALID,325.0,VALID,0.45,
2011-09-27, 03:14:05,VALID,1008.058,VALID,0.0,VALID,104.0,VALID,0.0,VALID,23.032,VALID,325.0,VALID,0.357,
2011-09-27, 03:15:05,VALID,1008.053,VALID,0.0,VALID,104.0,VALID,0.0,VALID,23.051,VALID,325.0,VALID,0.231,
2011-09-27, 03:16:05,VALID,1008.027,VALID,0.0,VALID,104.0,VALID,0.0,VALID,23.051,VALID,325.0,VALID,0.314,
2011-09-27, 03:17:05,VALID,1008.022,VALID,0.0,VALID,104.0,VALID,0.0,VALID,23.071,VALID,325.0,VALID,0.319,
2011-09-27, 03:18:05,VALID,1008.008,VALID,0.0,VALID,104.0,VALID,0.0,VALID,23.071,VALID,325.0,VALID,0.156,
2011-09-27, 03:19:05,VALID,1007.979,VALID,0.0,VALID,104.0,VALID,0.0,VALID,23.071,VALID,325.0,VALID,0.229,
2011-09-27, 03:20:05,VALID,1008.007,VALID,0.0,VALID,104.0,VALID,0.0,VALID,23.071,VALID,325.0,VALID,0.119,
2011-09-27, 03:21:05,VALID,1007.963,VALID,0.0,VALID,104.0,VALID,0.0,VALID,23.071,VALID,325.0,VALID,0.221,
2011-09-27, 03:22:05,VALID,1007.965,VALID,0.0,VALID,104.0,VALID,0.0,VALID,23.051,VALID,334.0,VALID,0.486,
2011-09-27, 03:23:05,VALID,1007.942,VALID,0.0,VALID,104.0,VALID,0.112,VALID,23.071,VALID,334.0,VALID,0.392,
2011-09-27, 03:24:05,VALID,1007.916,VALID,0.0,VALID,104.0,VALID,0.0,VALID,23.071,VALID,334.0,VALID,0.421,
2011-09-27, 03:25:05,VALID,1007.938,VALID,0.0,VALID,104.0,VALID,0.0,VALID,23.051,VALID,333.0,VALID,0.575,
2011-09-27, 03:26:05,VALID,1007.91,VALID,0.0,VALID,104.0,VALID,0.0,VALID,23.072,VALID,344.0,VALID,0.5,
2011-09-27, 03:27:05,VALID,1007.885,VALID,0.0,VALID,104.0,VALID,0.0,VALID,23.051,VALID,15.0,VALID,0.648,
2011-09-27, 03:28:05,VALID,1007.863,VALID,0.0,VALID,104.0,VALID,0.0,VALID,23.032,VALID,15.0,VALID,0.4,
2011-09-27, 03:29:05,VALID,1007.859,VALID,0.0,VALID,104.0,VALID,0.0,VALID,23.051,VALID,15.0,VALID,0.162,
2011-09-27, 03:30:05,VALID,1007.898,VALID,0.0,VALID,104.0,VALID,0.0,VALID,23.051,VALID,15.0,VALID,0.259,
2011-09-27, 03:31:05,VALID,1007.858,VALID,0.0,VALID,104.0,VALID,0.0,VALID,23.051,VALID,15.0,VALID,0.243,
2011-09-27, 03:32:05,VALID,1007.867,VALID,0.0,VALID,104.0,VALID,0.0,VALID,23.051,VALID,15.0,VALID,0.324,
2011-09-27, 03:33:05,VALID,1007.865,VALID,0.0,VALID,104.0,VALID,0.0,VALID,23.051,VALID,15.0,VALID,0.359,
2011-09-27, 03:34:05,VALID,1007.87,VALID,0.0,VALID,104.0,VALID,0.0,VALID,23.032,VALID,15.0,VALID,0.165,
2011-09-27, 03:35:05,VALID,1007.842,VALID,0.0,VALID,104.0,VALID,0.0,VALID,23.032,VALID,15.0,VALID,0.427,
2011-09-27, 03:36:05,VALID,1007.879,VALID,0.0,VALID,104.0,VALID,0.0,VALID,23.012,VALID,15.0,VALID,0.324,
2011-09-27, 03:37:05,VALID,1007.883,VALID,0.0,VALID,104.0,VALID,0.0,VALID,23.012,VALID,15.0,VALID,0.312,
2011-09-27, 03:38:05,VALID,1007.887,VALID,0.0,VALID,104.0,VALID,0.0,VALID,23.012,VALID,15.0,VALID,0.325,
2011-09-27, 03:39:05,VALID,1007.865,VALID,0.0,VALID,104.0,VALID,0.0,VALID,23.012,VALID,15.0,VALID,0.232,
2011-09-27, 03:40:05,VALID,1007.884,VALID,0.0,VALID,104.0,VALID,0.0,VALID,23.012,VALID,15.0,VALID,0.213,
2011-09-27, 03:41:05,VALID,1007.866,VALID,0.0,VALID,104.0,VALID,0.0,VALID,22.971,VALID,15.0,VALID,0.179,